STARLINK-5784 (56033 NORAD) Tracking and Keplerian Element Data

This shows tracking and keplerian element data for the satellite.

Feedback or suggestion? Click here.




ElementValue
Catalog56033
NameSTARLINK-5784
Epoch Orbit719
Epoch Day127.16667824
Epoch Year2023
RAAN292.1859
Inclination42.9991
Eccentricity0.0001436
Argument of Perigee273.6578
Mean Anonmoly173.4966
Mean Motion15.54694826
Decay Rate-0.0092645
L11 56033U 23042AZ 23127.16667824 -.00926450 00000+0 -15015-1 0 9993
L22 56033 42.9991 292.1859 0001436 273.6578 173.4966 15.54694826 7194



Live tracking and technical data element details for STARLINK-5784 (NORAD 56033). STARLINK-5784 can be tracked NOW for your location showing map with azimuth and elevation plus other details from your city location.







IsCatalogInMostPopularTable: catalog: 56033, numindb: 1
Update: records affected: 1



GetName: 56033 STARLINK-5784

Hit Count: updated at: Sat, 03 Jun 2023 17:51:11 GMT